GFSSE_con_mucape_057.txt.gz
CAPE
481 504 1423 1732 1947 1877 1724 2126 2372 2301 2120 2297 2275 1937 1782 1788 1841 1999 2062 2204 1771 1466 1833 1015 830 1252 1356 1770 1771 1473 2138 2197 2272 2519 2563 1996 2130 2191 2228 1974 2105 1632 1917
396 741 1780 2298 2025 2066 2057 2209 2244 2354 2262 2202 2142 2084 2080 2170 2281 2216 2150 1810 1416 1921 1438 1095 708 1339 1176 1578 1616 1702 2070 2193 2340 2450 2456 2114 2124 1757 1703 1608 2073 1833 1853
321 991 1187 2403 2021 1824 2007 2154 2373 2245 2180 2155 2163 2188 1955 1791 2095 2113 1844 1617 1611 1865 1319 1264 1280 1045 1307 1556 1346 1542 1873 2149 1927 2238 2254 1867 1983 1944 2020 1865 1834 1873 1496
391 1024 935 2333 2197 1912 1938 2125 2320 2192 2104 2202 2097 2180 2080 1995 1847 1974 1907 1764 1653 1837 1734 1449 1414 1340 1356 1479 1670 1229 1669 2025 2017 2151 2023 1841 1671 1794 2019 1982 1934 1688 1764
717 1117 1112 2238 2216 1883 2043 1911 2152 2113 2166 2113 2153 2104 1908 1923 1841 2041 1887 1662 1516 1510 1461 1528 1455 1441 1289 1215 1240 1547 1687 1586 1533 1628 2040 2028 1856 2073 1938 1839 1844 1615 1641
722 898 1511 2134 1567 2145 2164 1519 2037 2025 2219 2223 1815 1848 1877 1893 2070 2020 1725 1585 1408 1511 1478 1524 1530 1372 1311 1428 1173 1498 1254 1376 1029 1701 1718 1854 1724 1800 1620 1650 1637 1887 1880
519 1014 1168 2431 1794 1947 2058 1565 1942 2027 2033 2134 2122 2288 2138 2081 1907 1842 1711 1664 1280 1535 1464 1741 1266 1242 1413 1369 1477 1479 1622 1124 1224 1587 1675 1916 1786 2147 2005 1860 1761 1908 1780
806 735 1024 2005 1779 2002 2015 1613 2037 2108 2100 2026 1961 1995 2265 2234 1994 1806 1882 1831 1759 1656 1407 1398 1163 1310 1336 1464 1721 1936 1337 724 879 1396 1814 1838 1819 2177 1890 1808 1870 1795 1777
704 810 961 1747 1667 1612 2003 1614 1905 2041 2011 1850 1819 2027 2214 2226 2134 2014 1901 1778 1462 1253 1232 1163 1339 1485 1514 1622 1741 1649 1614 999 1185 1609 1499 1634 1987 1773 1809 1774 1897 1911 1531
516 803 991 1539 994 997 1270 1556 1731 1826 1890 1986 1939 2120 2148 2086 1993 1744 1740 1827 1386 1155 1055 1121 1291 1573 1715 1613 1620 1826 1655 1522 1365 1460 1196 1392 1860 1552 1807 1794 1836 1788 1868
564 734 890 1201 1339 1465 1368 1261 1612 1714 1798 1809 1767 1970 1816 2021 1686 1285 1567 1654 1498 1529 1406 1240 1441 1516 1654 1704 1806 1559 1291 1173 1137 1128 1310 1498 1696 1551 1685 1826 1790 1759 1727
704 661 773 1081 1080 1247 979 1423 1635 1561 1437 1532 1801 1789 1609 1689 1692 1282 1449 1671 1642 1717 1582 1600 1407 1630 1189 1281 1410 1465 1162 1199 1112 1040 1089 1402 1833 1292 1731 1884 1829 1622 1601
652 516 856 1122 1205 1306 1184 1580 1537 1612 1597 1749 1816 1274 1469 1618 1772 1305 1538 855 790 1026 892 848 1010 933 1102 1139 1251 1274 1372 1191 1037 823 1236 1503 1567 1595 1741 1694 1714 1630 1495
516 620 774 1083 1171 1322 1367 1378 1435 1427 1465 1400 1259 692 1496 1670 1696 1338 1134 731 722 977 1443 1629 1650 1657 1494 1356 1401 1317 1266 1132 770 805 1218 1468 1593 1155 1022 1788 1628 1457 1403
257 721 792 1152 1142 1375 1528 1330 1312 1435 1297 1112 1123 194 1161 1467 1647 1191 1127 1060 1394 1347 1473 1749 1468 1086 844 829 1410 1460 1275 1154 807 679 862 1239 1532 898 1215 1375 1513 1629 1521
329 658 862 1094 1021 1225 1151 1490 1269 1265 1115 1118 1166 311 538 1132 1422 918 1063 1376 1519 1480 1480 1520 1543 1054 686 731 1610 1534 1405 1085 820 714 1173 1021 1233 926 676 620 902 1143 1113
674 702 850 950 874 989 1014 1100 933 818 790 1048 1193 1165 450 527 1017 1168 1514 1532 1609 1792 1509 1950 1648 1096 265 578 1466 1560 1362 1239 683 657 1015 1233 923 1124 1237 685 510 455 452
542 754 865 544 547 624 585 639 541 428 649 996 1137 1055 828 1128 1438 1760 1649 1603 1664 1574 1797 2480 1666 848 511 388 1142 1162 1295 1023 632 577 749 1055 1105 903 965 1177 1315 1361 1266
451 715 790 724 495 453 554 464 386 384 603 876 1057 1151 1337 1296 1023 1634 1586 1692 1875 1766 1807 1716 1380 929 567 242 728 969 835 466 266 185 448 729 952 977 1017 1275 1274 1218 1059
446 614 672 613 610 559 528 667 398 253 484 808 951 1031 1431 1447 1457 1564 1708 1698 1510 1936 2186 1813 1812 1233 896 182 130 424 490 491 465 197 286 295 417 687 595 1001 1108 1018 1372
643 567 585 622 758 515 401 384 485 492 633 795 1039 1306 1562 1547 1667 1863 1590 1649 1351 1620 2214 1589 1031 745 777 91 253 150 187 289 542 309 302 308 378 377 357 588 738 689 561
565 617 631 650 702 694 428 606 624 866 885 1117 1282 1473 1691 1663 1934 1839 1582 1501 1376 1558 1846 1521 1009 94 233 133 119 149 102 115 117 206 428 502 601 588 514 459 586 744 663
477 619 653 845 849 815 851 662 697 839 767 876 1196 1550 1724 1859 1997 2037 1598 1573 1481 2581 2361 1884 996 514 196 326 105 155 100 47 109 95 361 545 781 791 800 862 694 639 797
567 436 710 806 915 723 974 915 1356 765 825 859 1117 1282 1803 1926 2004 2117 2033 1697 1843 2113 2556 1859 1483 924 473 302 87 46 122 293 18 48 229 347 782 860 944 826 521 657 827
287 380 258 793 1110 1127 1166 1224 993 1196 886 942 782 1316 1816 2037 1948 2043 2218 1960 1955 2049 2321 2040 1994 1663 523 219 125 207 457 292 73 76 25 226 461 677 818 905 553 545 805
145 280 298 770 903 1123 999 1167 1561 1658 1233 846 832 846 938 1328 1722 1978 2051 2259 2315 2105 2119 2099 2158 1857 1157 317 309 454 174 103 182 227 160 314 202 383 630 801 779 663 682

GFSSE_con_mucape_060.txt.gz
CAPE
990 1048 1589 1575 1376 1731 1769 1802 2091 2113 2314 2370 2392 2156 1875 1705 1849 1938 2324 1865 1558 1868 1170 942 1421 1533 2002 1839 1767 2038 2233 2321 2493 2469 2067 1998 2089 2135 1973 1497 2223 1140 1774
799 758 1512 1792 1746 1899 2225 2099 2055 1973 2031 2159 2016 1903 1908 2176 2442 2399 2081 1497 2066 1474 1196 807 1449 1269 1720 1727 1665 2073 2008 2060 2414 2291 2305 2060 1956 1777 1752 1869 2601 1835 1770
697 757 1355 2340 2113 2113 2152 2202 2295 2281 2239 2157 2119 2097 2069 2232 2331 2140 1874 1533 1979 1407 1393 1342 1175 1553 1542 1269 1673 1890 2278 2125 2030 2056 2017 1834 1979 1941 1885 2098 1783 1681 1733
738 632 1426 2256 2388 2115 2349 2333 2330 2287 2303 2263 2263 2132 1936 2121 2080 2142 1781 1716 1881 1714 1552 1513 1375 1380 1655 1559 1631 1944 2107 2329 2293 2050 1950 1460 1643 1918 1965 1940 1749 1816 1721
398 389 1794 2184 2420 2246 2162 2162 2096 2126 2210 2313 2196 2088 1927 1844 2017 1936 1772 1531 1650 1591 1691 1650 1531 1400 1472 1602 1524 1983 1842 1903 1909 1933 2027 2240 1716 2029 1986 1916 1891 1768 1730
397 394 1861 2005 1716 2240 1941 2119 2172 2158 2260 2079 2157 2021 2056 1751 1805 1639 1550 1563 1566 1534 1614 1693 1620 1393 1521 1284 1474 1363 1601 1290 1805 1518 1702 2029 1948 1993 1833 1776 1816 1968 1359
274 523 1732 2357 1966 2030 1623 1985 2100 2296 2266 1996 2095 2093 2048 1919 1709 1598 1524 1362 1568 1543 1722 1448 1351 1453 1504 1515 1534 1717 1265 1071 1206 1250 1921 1824 1822 2270 2078 1714 1987 1957 1478
185 338 1525 1843 2085 2088 1615 2127 2049 2111 2024 1994 2046 2073 2119 2121 2096 2007 1972 1849 1651 1543 1632 1297 1309 1475 1523 1814 1819 1658 1099 718 905 1662 1849 1767 2122 2140 2006 1933 1913 1890 940
142 367 1303 918 1908 1839 1669 1962 2009 2095 2026 1871 1813 1841 2245 2155 2027 1835 1703 1483 1404 1331 1130 1352 1483 1620 1544 1802 1883 1688 977 883 1345 1525 1489 1338 2096 2002 1929 1946 1878 1459 1596
144 345 1103 748 936 1755 1201 1881 1949 2037 2056 1944 1701 2031 2121 1969 1603 1553 1888 1421 1215 1157 1143 1304 1567 1518 1484 1601 1932 1694 1530 1341 781 764 1035 1131 1874 1901 1873 1836 1862 1684 1704
131 302 891 482 750 1058 1261 1780 1866 1924 1980 2031 2026 2233 2041 1135 1117 1282 1644 1301 1424 1277 1164 1269 1504 1574 1753 1739 1857 1535 1817 784 632 716 1015 1514 2189 1734 1787 1852 1786 1689 1592
103 183 510 462 715 933 674 1335 1376 1268 1249 1372 1361 1528 1258 1334 1412 1224 1514 1712 1526 1523 1536 1454 1516 1503 1752 1094 1200 1572 738 695 623 623 1042 1469 2049 1796 1835 1769 1682 1607 1599
52 122 392 561 804 836 888 1138 1211 1204 1202 1496 1654 1365 1339 1292 1118 1193 1070 1209 1093 1375 970 1346 1483 1173 1221 986 1085 962 1068 771 452 665 1142 1679 1567 1623 1732 1713 1658 1501 1436
44 113 344 535 827 984 988 1014 992 969 930 939 1232 1748 1693 1633 1429 1144 889 966 1286 1226 1616 1223 1159 1615 1468 1447 1125 924 879 643 513 455 928 1339 1424 1284 1698 1675 1619 1499 1643
72 80 254 540 915 1205 1152 996 884 934 1021 1025 1483 1221 1322 1257 1344 1087 1201 1190 1199 1323 1149 1149 1038 1047 1181 1406 1360 1226 996 793 693 461 757 1243 1029 1098 1604 1509 1607 1616 1501
88 71 206 540 876 1159 1204 1353 1185 1184 1243 1214 1134 857 1802 2120 1594 1166 1405 1368 1175 1172 986 980 952 553 641 946 1448 1306 1085 813 746 866 517 1099 1213 788 701 933 1190 1381 1123
90 162 240 514 662 1089 1235 1487 1220 1103 864 1040 1134 1272 1022 1617 1876 1501 1414 1378 1249 1569 1634 1441 1200 951 123 378 1112 1282 1199 874 700 873 935 875 998 1195 928 606 469 438 450
96 279 359 218 374 814 924 1191 803 787 892 961 1141 1233 1056 1506 1877 2289 1648 1329 1627 1439 923 742 1071 274 121 243 580 540 844 636 711 790 757 851 735 1214 1166 1314 1214 1192 1219
299 469 482 312 301 425 688 719 692 920 1076 1155 1280 1284 1693 1659 1785 1815 1349 1709 2035 1467 780 735 608 403 151 213 308 515 646 449 448 447 625 682 893 771 666 1203 1145 1078 846
397 571 571 373 379 478 458 581 473 721 1027 1246 1351 1381 1863 1715 1808 2061 1731 2280 1428 876 949 863 1020 584 715 527 114 313 287 445 326 297 450 202 380 726 815 1019 1202 1294 1217
282 550 668 521 576 585 401 296 451 651 942 1164 1184 1566 2007 1869 2080 2285 1529 2073 2146 962 689 1444 1631 1380 280 275 716 256 194 481 717 325 201 162 349 165 164 458 725 365 1033
295 443 749 727 786 820 261 469 355 743 890 1056 1371 1855 2107 2079 2230 2093 1927 1825 1910 1001 1284 1557 1264 531 637 310 745 88 69 98 191 70 146 311 431 433 483 481 348 638 552
331 581 739 958 952 913 630 321 937 1131 1295 1577 1626 1626 1978 2186 2271 2224 2322 1976 2288 1352 1222 1635 1153 719 394 629 807 1143 56 173 16 17 473 361 684 631 558 666 579 455 517
356 607 892 1085 1151 990 887 953 1798 1197 874 682 1126 992 1484 2190 2199 2347 2399 2261 1961 1246 1547 1115 1028 716 790 415 322 50 719 782 38 42 135 425 648 702 871 754 548 732 645
398 573 938 1306 1948 1855 1647 1490 1074 1581 453 580 847 1589 2057 2473 2314 2145 2570 2568 2537 1499 1690 1635 1795 1803 460 201 112 36 248 59 190 266 244 409 432 454 546 802 533 492 751
492 459 823 1878 2078 2076 1602 977 1795 2073 1477 839 1457 1318 1267 1334 1904 2376 2477 2748 2727 2144 1714 1615 1849 2158 1571 1114 368 304 37 76 189 222 240 449 375 446 460 593 673 686 654

GFSSE_con_mucape_063.txt.gz
CAPE
817 985 1235 1245 1402 1522 1968 2004 1967 2274 2413 2312 2227 2074 1838 1576 1748 2108 1926 1660 1865 1271 1021 1554 1636 2108 1911 2016 2082 2306 2567 2618 2569 2109 1959 2307 2172 1973 1863 1712 2477 1392 1802
869 1067 1611 1785 1632 1889 1939 1980 2047 2276 2184 2385 2102 1836 1776 2177 2167 1843 1622 2119 1564 1179 920 1551 1352 1736 1801 1722 1992 1787 2176 2115 2584 2423 2440 2216 2013 2054 1969 2136 2668 1726 1687
828 873 1270 1962 2000 2054 2053 2006 1960 1932 2072 2154 2145 2163 2382 2156 2249 1963 1535 1894 1466 1614 1349 1334 1663 1491 1400 1923 2029 2029 2285 2142 2113 1876 2197 1880 1923 2207 2116 1794 2088 1922 1893
708 792 901 2273 2508 2093 2147 2335 2285 2302 2335 2368 2188 2028 2125 2177 2069 1894 1729 1793 1586 1671 1579 1388 1538 1540 1542 1798 2003 2248 2282 2006 1833 1512 1677 1724 1480 2113 2009 2051 1892 1647 1322
448 409 1280 2311 2444 2354 2277 2297 2243 2243 2266 2177 2140 2057 1979 1939 1858 1890 1681 1716 1653 1859 1635 1636 1500 1594 1802 1490 1989 1884 1799 1713 1848 1919 1930 2566 1511 2021 1892 1967 1793 1618 2086
504 470 1744 1992 2113 2139 2204 2147 2159 2169 2124 2200 2122 2023 1852 1809 1799 1708 1726 1650 1576 1711 1721 1706 1589 1502 1430 1551 1433 1550 1434 1457 1922 2049 2056 1860 1878 1989 2027 2071 2067 1090 1937
457 525 1492 2360 2004 2016 2181 2128 2108 2114 1881 2090 2034 2003 1869 1857 1640 1622 1578 1691 1618 1614 1495 1473 1569 1655 1509 1623 1614 1054 1131 1324 2126 2191 1673 1796 1888 2432 1924 2101 1957 1709 1723
188 425 734 1979 1877 1931 1887 1973 2112 2025 2012 1931 1938 1887 1798 1908 2169 2057 1876 1646 1588 1683 1400 1371 1429 1534 1643 1593 1613 981 1067 1164 1584 1843 2017 1704 2110 2291 2105 1936 1746 1176 1086
128 420 789 1534 1837 1762 1952 1904 2050 2050 2030 2132 2131 2072 2236 1941 1908 1828 1638 1589 1393 1135 1401 1388 1195 1539 1730 1846 1541 1097 918 1342 1747 1421 1125 1223 2059 2183 2069 1818 1342 1629 1739
211 319 458 941 1424 947 1858 1802 1975 2054 1944 1762 1662 1985 2064 1705 1239 1074 2002 1625 1272 1150 1383 1201 1311 1462 1693 1740 1469 1180 1491 1692 1013 1397 915 1449 2494 1988 1958 1961 1720 1684 1580
86 313 274 523 1139 904 1677 1919 1959 2063 1999 1872 1881 1936 1849 1115 1399 1358 1668 1470 1255 1130 1166 1186 1236 1523 1711 1727 1528 1482 1796 735 724 929 1136 1986 2294 1905 1911 1845 1754 1680 1721
63 156 198 413 529 673 671 1502 1598 1526 1198 1319 1032 1704 1666 1706 1733 904 1256 1420 1448 1389 1324 1338 1210 703 1670 1178 1367 1642 1333 544 490 928 1191 1671 2057 1935 1885 1834 1662 1580 1180
36 155 81 352 465 407 1048 1211 909 1425 937 1283 1160 1121 889 875 1106 693 1186 1208 1305 1679 1085 1193 1327 1385 1442 1113 1339 1132 356 270 578 649 1283 2303 1645 1882 1765 1686 1515 1428 1538
26 64 66 297 591 569 459 814 1176 786 537 767 1144 1312 1477 1903 1438 1729 1617 1294 1414 1022 1202 1108 1132 1114 1211 837 1031 765 485 254 298 545 1426 1998 1644 1653 1656 1692 1571 1592 1535
17 39 117 344 723 1060 1322 2175 759 490 419 962 1237 1443 1438 1753 1457 1948 976 835 2148 1269 917 1093 639 1102 1262 1131 1141 785 520 370 406 447 587 1083 1163 1495 1548 1524 1546 1441 1325
12 24 182 400 804 954 1610 2047 754 437 2031 1008 1418 1137 1677 1750 2167 1217 2006 1546 1105 525 996 1276 1686 1296 1587 946 1134 1136 763 653 1139 1127 591 1076 933 824 959 1154 1463 1332 1042
6 14 196 420 684 993 2136 1069 800 837 1011 1337 1598 1695 1477 2101 1699 2499 1975 554 1057 1402 2049 1159 808 76 395 918 890 1160 470 668 764 1358 1093 1065 1091 899 682 485 481 452 465
13 6 140 154 582 882 1219 1187 917 672 1049 1244 1275 1519 1395 1652 1705 2328 1319 1461 1168 923 975 608 200 1100 100 435 975 742 566 444 670 619 1065 1227 1580 1239 1260 1170 895 808 873
48 31 123 247 496 837 1204 1169 1244 1122 1485 1462 2165 1774 1733 1965 1881 2232 1464 1954 1949 1569 1082 523 43 841 412 54 134 249 1411 181 848 529 454 887 897 1106 1398 1815 1571 1249 861
52 144 254 268 1141 1510 1291 1188 850 950 1304 1661 1542 2026 1973 2029 1883 2131 1565 1515 1376 1091 405 1654 578 1176 1164 470 582 299 575 172 88 305 194 212 385 492 1088 1536 1246 977 1394
94 273 433 882 2143 1114 809 690 697 813 998 1774 1641 1673 1759 1877 1916 2109 1736 1863 1562 1540 1140 759 730 482 48 1054 528 75 101 83 237 165 91 135 63 123 93 431 611 885 1218
175 452 1238 1374 2284 1359 794 1221 934 1281 787 811 814 1714 1773 1628 2016 1863 2386 2055 1971 1566 1205 1429 1392 919 156 515 73 683 357 289 436 131 20 60 248 284 431 391 328 364 321
258 476 1417 1956 2246 1763 1494 1200 1244 1307 1422 866 1560 1406 1874 1908 2058 2101 2114 1755 1639 1723 1204 1453 1389 1860 927 327 1075 761 620 591 57 0 31 189 656 579 523 584 510 463 538
205 381 1523 1796 2354 1891 2012 826 1877 1016 805 651 1182 928 1578 1901 1980 2169 2341 2272 1964 1631 2517 2109 1234 1829 1714 484 37 238 1420 1167 968 29 158 277 505 548 743 792 908 785 701
254 377 581 2174 2571 2202 2060 1843 1140 1796 650 595 626 2912 2946 3367 2019 1794 2391 2184 2283 1654 1833 1472 1713 2016 868 1072 56 9 89 0 332 844 698 532 475 499 737 960 595 574 1129
347 361 946 2256 2854 2822 2474 2000 2567 2094 1991 456 903 1535 1007 1631 1852 2204 2077 3028 2185 1925 2008 1985 2158 1788 3104 1554 1116 151 2 77 319 279 231 680 725 575 460 526 612 579 631

GFSSE_con_mucape_069.txt.gz
CAPE
231 196 946 1215 1489 1507 1629 1725 2092 2794 2165 2229 1960 1580 1710 2232 2280 2093 1968 1074 1307 1689 1690 2207 2049 2135 2343 2523 2605 2660 2661 3247 3140 2439 2169 1824 1720 2085 2592 1819 1435 1102 1889
347 579 1335 1589 1503 1926 1951 2043 2309 2568 2074 2149 1930 1732 2198 1959 1936 2113 1626 1070 1375 1541 1364 1879 1907 2025 2002 2227 2467 2352 2635 3221 3187 2702 2219 1926 1726 1825 2118 1722 1689 1777 1772
495 821 1372 2105 1825 1951 2189 2461 2265 2176 2214 2082 1910 2112 2109 1866 1930 1919 1714 1790 1217 1820 1639 1641 1959 2126 2074 2170 2261 2262 2143 2374 2393 2483 2058 1493 1584 1891 1884 1629 1543 1871 1344
702 843 1092 1851 1995 2005 1973 2414 2433 2249 2356 2269 2349 2083 2033 1948 1926 1836 1802 1932 1504 1575 1661 1638 1725 1918 2149 2188 2280 2133 2111 2058 2202 2180 1222 1012 1351 1674 1349 1631 1378 1711 1664
648 799 974 1858 2271 1840 2060 2245 2535 2206 2201 2150 2033 2005 1974 1931 1831 1576 2000 1701 1801 1618 1724 1797 1698 1783 1980 1949 1797 1948 1744 1967 2352 1649 704 1228 1347 1621 2102 1840 1692 1115 1641
706 851 2019 1968 2001 1922 2095 2234 2166 2221 2164 2202 2275 1961 2015 1885 1900 1827 1765 1868 1680 1625 1686 1571 1512 1711 1444 1627 1859 1814 1971 1988 1874 1336 1528 1761 1421 1812 1472 1774 1806 1786 1913
455 1371 1787 2410 2408 2035 2032 2224 2174 2223 2133 2067 2310 1964 2158 1806 1849 1754 1585 1790 1598 1763 1798 1577 1506 1537 1445 1304 1491 1569 1929 2101 1169 1307 1428 1378 1504 2138 1558 1873 1761 792 313
528 1241 1398 1942 2088 2221 2012 1975 2049 2026 2057 2062 2026 1844 1871 1627 1631 1600 1550 1870 1615 1563 1606 1528 1483 1485 1462 1224 1008 1313 1508 2116 1358 1374 1361 1414 1900 2126 1710 1714 492 852 1716
550 1102 1295 1550 1603 2010 2009 1929 2066 2090 1984 2110 2013 2177 2181 2091 1836 1645 1466 1586 1432 1303 1399 1539 1534 1516 1533 1303 963 1343 1893 2159 1094 1326 1428 1455 2162 1588 1027 1192 1181 1454 1391
624 966 748 1473 1372 1571 1688 1880 1917 2060 2122 2033 2073 1971 1920 1738 1542 1553 2073 1944 1369 1230 1329 1453 1538 1628 1469 1389 1326 1454 2162 2024 1189 1381 1421 1723 2171 1753 1621 1777 1873 1796 1851
313 649 329 1192 1143 1342 1488 1722 2144 2039 2072 2288 2120 1726 1807 1008 1007 1221 1630 1880 1367 1277 1375 1427 1478 1486 1538 1542 1459 1424 1360 1042 1058 1419 1624 2184 2274 1792 1786 1693 1698 1419 1146
331 391 89 608 1054 1030 1433 1546 1523 1467 1463 1251 1330 986 926 911 680 1120 1578 1959 1325 1376 1538 641 1283 1606 1487 1140 1005 1339 1553 854 1041 1370 1760 2513 2423 1891 1669 1532 1650 961 1342
110 39 103 591 723 757 812 1428 1270 1228 1108 1098 1050 911 1164 601 607 927 1200 1206 970 1325 865 656 376 564 796 908 1101 1007 1059 754 960 1332 2112 2514 2324 1574 1605 1644 1504 1517 1337
0 82 134 351 667 514 806 1240 1145 862 1160 1012 420 914 528 244 525 783 641 766 592 768 748 628 288 433 463 618 869 600 626 637 835 1322 2056 2457 2188 1547 1390 1347 1442 1334 1124
3 86 79 199 421 253 802 1045 877 799 999 828 683 625 676 718 334 747 620 119 275 702 566 448 582 432 584 516 805 517 415 476 875 1340 1634 2228 2232 2199 1553 1579 1489 1362 1209
19 23 5 498 247 504 403 452 275 570 723 745 563 1 498 718 1074 415 335 346 324 625 637 560 554 582 473 542 441 553 547 543 663 808 1060 1508 2219 2249 1753 1476 1393 1222 1019
18 12 15 318 160 690 588 556 400 430 667 989 767 436 484 721 913 673 685 595 160 886 236 610 930 857 622 383 811 340 668 490 409 382 571 1184 1722 2080 1784 1604 1710 1321 897
4 3 2 146 677 478 382 1270 568 319 268 1198 1237 1078 1006 912 748 659 397 320 1042 1175 844 243 523 479 430 668 239 507 577 558 519 484 563 483 658 700 1494 1646 1724 1416 550
9 0 0 4 373 398 340 687 485 289 921 1182 1072 1308 1148 1481 1036 814 386 681 533 875 976 701 117 607 381 446 157 355 600 693 724 639 797 803 709 671 465 1337 1503 1416 807
16 0 0 19 284 421 457 268 795 948 673 1199 1221 948 1655 1366 982 845 741 853 669 445 469 997 200 185 106 194 379 249 590 378 480 533 841 1116 865 986 866 656 1000 1171 1774
28 0 81 202 196 806 866 688 773 705 505 965 1490 1408 1605 1465 884 0 796 1113 935 48 342 692 815 88 80 285 250 187 171 233 127 248 541 780 1033 1192 1141 1090 817 973 1006
31 0 131 352 343 829 757 711 477 468 943 438 457 1159 1577 1635 1073 779 853 1230 807 601 807 737 189 88 40 40 220 269 129 60 358 286 321 583 360 844 1018 1036 968 830 885
9 6 0 705 465 674 428 489 791 958 959 788 616 900 1433 1750 1425 1307 952 1193 834 1027 961 908 504 68 51 161 184 227 158 16 284 75 66 165 136 564 627 748 775 930 991
0 30 11 750 513 643 522 132 558 559 695 658 767 1459 1567 1419 1763 1410 1260 976 1297 905 1059 1135 1248 463 265 214 1070 813 292 238 432 0 92 241 272 622 595 552 644 700 564
14 51 185 844 511 271 721 160 269 358 607 633 821 1185 1618 1664 1692 1721 1469 1550 1233 896 868 964 1275 1353 1025 685 904 122 412 79 100 254 120 565 414 445 617 534 662 768 699
56 0 316 752 398 315 304 798 202 330 332 804 914 1091 1392 1893 1974 1847 2131 1563 1277 1416 1203 1231 1607 1147 1385 1447 1546 1127 94 5 80 191 733 420 337 346 662 630 633 790 705

GFSSE_con_mucape_072.txt.gz
CAPE
91 390 1197 1326 1520 1537 1621 1763 2225 2421 2115 1866 1590 2042 2396 1973 2182 1551 1110 1620 1680 1999 2080 2230 2259 2471 2642 2515 2391 2414 2394 2486 3066 2127 1859 1788 1908 1882 1698 1377 1570 1343 1483
45 649 1321 1637 1704 1784 1735 2111 2348 2187 2115 1851 1783 2165 1974 2079 2160 1342 1036 1265 1423 1572 2064 1898 2116 2215 2380 2407 2689 2714 2572 3069 3224 2475 2111 2172 2037 1728 1581 1385 1349 1433 1398
96 736 1455 2145 1971 1818 2135 2152 2044 2114 2141 1863 2271 2123 1925 2111 1958 1794 1484 1772 1693 1830 1775 1878 2052 2048 2221 2343 2361 2099 2361 2377 2839 2151 2141 1431 1498 1638 1452 1785 1412 1167 1599
447 1117 1464 2308 2379 1784 2161 2354 2257 2276 2099 2241 2185 2037 1846 2067 1978 1907 1675 1360 1776 1793 1524 1996 1992 2050 2153 2217 2148 1959 1966 2117 2439 1811 1142 1129 891 1876 1292 1444 1537 1818 1521
678 1037 1291 1853 2056 1922 1927 2006 2313 2219 2175 2017 2113 2127 1827 1960 1743 1772 1878 1806 1748 1769 1756 1777 1907 1996 2031 1835 1903 1750 1809 2297 1849 1037 1177 1253 1465 1601 1899 1319 1556 1288 1650
676 775 1729 1919 1827 1969 2211 2120 2056 2026 2059 2021 2016 2052 1905 1763 1782 1825 1821 1789 1655 1673 1799 1596 1873 1859 1786 1979 1763 1994 2195 2167 1773 1373 1377 1618 1470 2066 1874 1654 1676 1388 530
660 1198 1518 2500 2432 2140 1907 2040 2165 2151 2103 2127 2092 2101 1912 1845 1825 1770 1836 1695 1862 1797 1569 1620 1536 1502 1920 1864 1978 2120 2169 2095 1342 1301 1283 1422 1233 2153 1832 1599 760 203 569
1256 1561 1734 2172 2206 2308 2194 2207 2188 2131 2087 2057 2018 1913 1780 1737 1709 1586 1765 1661 1710 1738 1700 1613 1471 1539 1645 1630 1887 2138 2745 1863 1319 1169 1248 1352 2033 2246 1697 499 1021 1253 1056
1211 1368 1536 1640 1802 2070 1969 2066 1994 2089 2145 2071 1904 1882 1720 1549 1645 1730 1813 1670 1548 1525 1507 1511 1480 1354 1466 1338 1436 1792 2323 1843 1192 1254 1395 1467 2010 1626 774 670 1489 1100 940
955 1161 1412 1395 1614 1631 1639 2109 2047 2123 2145 2056 2126 1931 1928 1763 1648 1374 1967 1955 1376 1404 1444 1472 1552 1611 1540 1501 1673 2608 2169 1786 1211 1266 1503 1647 1905 1710 1825 1790 1670 1708 1645
800 1123 1234 1244 1455 1431 1492 1745 2126 2117 1974 1956 1871 1719 1713 1057 1038 904 1443 1645 1363 1426 1445 1496 1562 1635 1559 1673 1931 2082 1495 1218 1209 1337 1593 2111 2187 1666 1753 1490 1895 1625 1283
484 713 914 1072 1180 1334 1552 1722 1621 1628 1701 1319 1284 1087 894 920 837 886 1321 1479 1342 1462 1255 1472 1758 1769 1359 786 833 1316 1111 1033 1314 1494 1676 2381 2278 1651 1623 1667 1214 954 1493
297 138 741 830 998 1150 1382 1433 1313 1268 1089 748 535 598 670 617 1025 1072 1036 1043 1051 1084 626 390 349 476 645 815 924 899 865 909 1263 1524 2038 2618 2352 1627 1464 1194 1030 1575 1373
181 0 556 772 643 947 904 1142 1124 959 807 733 587 694 545 400 392 604 644 492 563 513 546 206 230 418 581 813 672 796 924 835 1168 1495 1944 2499 2117 1504 1605 1464 1495 1188 1382
48 0 295 584 521 520 838 967 898 737 857 801 668 402 93 164 251 558 487 254 319 665 502 302 373 523 438 599 617 788 655 721 1066 1464 1649 1926 2234 1754 1358 1401 1502 1316 1182
35 69 206 359 453 297 710 897 833 685 972 424 315 416 387 636 315 457 357 61 261 492 443 468 404 498 488 528 456 534 369 525 837 1235 1414 1490 2225 2223 1542 1408 1384 1284 1182
74 97 102 289 393 218 674 627 682 642 688 431 219 310 399 661 584 77 150 175 183 167 424 423 451 646 724 447 338 291 338 356 633 805 1021 1153 1766 1861 1668 1546 1464 1229 1041
101 93 111 190 282 260 351 341 447 510 576 400 157 232 450 917 562 298 339 238 294 227 152 718 655 698 510 478 392 472 365 318 395 324 524 935 1305 1280 1768 1913 2000 1524 868
36 143 162 268 196 216 665 524 302 428 598 710 666 619 499 804 498 392 288 636 447 576 362 75 607 338 242 415 334 441 376 334 416 347 450 405 576 578 707 1413 2040 1876 670
0 210 502 243 112 133 414 260 303 233 772 869 954 926 836 964 451 357 203 453 457 394 702 140 188 157 240 295 224 252 467 457 428 410 493 611 596 613 492 266 774 898 1490
4 60 325 328 176 104 239 424 408 604 754 969 804 764 1073 1021 456 505 649 936 663 105 422 151 102 63 172 154 209 173 316 342 294 385 514 832 916 740 846 752 515 600 728
0 0 0 236 160 190 263 154 372 468 734 969 821 1056 1040 892 241 174 601 898 369 26 553 536 67 17 54 162 176 64 118 127 218 166 248 511 692 955 1054 940 1003 600 716
28 34 0 130 151 303 215 282 358 369 398 907 889 983 1198 1213 812 666 761 886 716 254 523 317 84 17 9 36 111 143 72 14 168 116 218 391 616 523 780 991 1075 850 798
53 48 39 237 176 383 211 305 452 726 507 408 407 477 1052 1398 1015 937 780 984 574 651 641 728 571 22 12 65 561 258 173 56 294 35 185 301 271 182 562 675 712 893 903
145 78 260 304 236 437 351 159 399 324 688 441 390 630 872 1163 1261 1058 903 871 952 693 736 808 1085 734 437 132 566 92 249 174 124 160 220 242 297 270 520 553 519 519 672
123 117 394 324 268 407 352 199 101 329 267 488 534 888 1097 1002 1296 1158 1008 1110 856 738 509 536 921 1103 985 834 1000 1013 218 14 132 151 376 438 289 343 315 443 471 494 550

GFSSE_con_mucape_075.txt.gz
CAPE
14 497 1148 1416 1600 1725 1940 2129 1949 1834 1641 1536 2072 2102 1886 1984 1511 1366 1665 1664 2252 2216 2298 2387 2476 2533 2347 2340 2234 2297 2440 2303 2234 2160 2160 1980 1802 1612 1720 1656 1155 1083 1373
21 618 1368 1592 1677 1763 1894 2256 2312 1932 1702 1622 2263 2138 2277 2139 1193 1030 1210 1496 1936 1961 1975 2210 2298 2264 2470 2651 2458 2582 2361 2366 2783 2354 2248 1882 1543 1116 1230 1324 1411 861 1053
66 781 1437 2187 1895 1884 2145 2285 2280 2144 1785 2028 2329 2026 2182 1901 1722 1508 1998 1616 1539 1960 1839 2028 2189 2317 2420 2338 2513 2408 2460 2460 2380 2168 2011 1316 1365 1472 1572 1301 1611 740 785
434 1047 1514 2402 2239 2023 2194 2166 2222 2130 1966 2248 2165 1949 2046 1961 1811 1411 1617 1974 1782 1757 2066 2075 2044 2044 2254 2217 2117 2034 2153 2276 1986 1872 1173 1417 1343 1484 1384 1617 1486 1527 479
802 1264 1676 2013 2115 2144 2398 2304 2373 2192 2199 2231 2089 1838 2106 1824 1860 1807 1693 1728 1849 1858 1970 2076 1904 2084 2003 2082 1964 2039 2050 2098 1897 1253 1124 1002 1004 1712 1511 1528 1257 1443 824
945 1259 1903 1996 1960 1957 1898 2107 2190 2083 2058 2109 1927 1761 1910 1749 1784 1752 1703 1633 1709 1586 1703 1880 1875 1929 2008 2006 2070 2105 2305 1926 1713 1235 1486 1670 1360 1734 1397 1417 747 863 1252
836 1255 1647 2289 1968 2059 2249 2198 2073 2025 2036 2054 2043 1886 1751 1757 1864 1749 1668 1806 1613 1462 1611 1679 1707 1836 2006 1912 2070 2079 2001 2109 1214 1243 1344 1003 1461 2284 2012 1009 283 1308 862
901 1346 1553 2106 2173 1952 1988 2166 1992 2056 2006 2083 1990 1848 1744 1803 1808 1797 1688 1646 1727 1469 1397 1398 1562 1806 1777 1755 2306 2696 2387 1904 1223 1286 1130 1158 2235 1892 803 720 729 673 1071
1273 1401 1599 1687 1754 2169 2116 2123 2051 2045 2044 2001 1935 1769 1766 1697 1556 1831 1779 1688 1562 1459 1380 1357 1539 1589 1609 1663 1754 2241 2080 1649 1087 1206 1299 1400 2435 937 607 1893 1587 1536 1593
1254 1458 1477 1584 1703 1584 1818 1999 1999 2152 2042 1926 1798 1671 1567 1588 1636 1623 2007 1872 1510 1441 1388 1414 1573 1628 1473 1827 1821 2310 1985 1726 1184 1376 1303 1322 1805 1210 1211 1680 1573 1432 746
1075 1216 1420 1431 1506 1486 1629 1495 2043 2060 1947 1827 1528 1787 1776 1348 1018 1145 1597 1544 1559 1483 1394 1475 1350 1333 1476 1820 2300 2137 1694 1098 1170 1322 1372 1962 2070 1822 1815 1808 1798 1556 897
797 1136 1152 1331 1333 1336 1563 1738 1661 1552 1459 1428 1356 1222 958 976 813 1053 1389 1451 1563 1719 1721 1465 1338 1607 1136 761 1566 1611 1082 1031 1160 1330 1416 2126 2195 1696 1485 1582 910 1121 1263
656 917 1004 1200 1180 1254 1547 1600 1515 1443 1135 1168 997 787 852 817 1125 1131 1246 1126 1167 928 836 1088 925 669 726 615 813 853 930 1024 1167 1367 1632 2126 2051 1470 1341 1478 966 1582 1321
397 694 798 927 1079 1197 1466 1405 1287 1242 851 530 583 581 657 578 834 838 758 733 703 370 231 187 374 477 528 643 756 678 683 915 1112 1363 1834 2241 2027 1457 1097 1421 1479 1238 1352
46 324 533 687 756 991 1226 1171 1074 904 752 663 470 606 519 300 395 389 421 125 134 421 472 302 451 406 593 632 616 742 757 759 1005 1229 1526 1775 2103 1693 1386 1352 1497 1085 1200
0 63 410 622 503 691 800 874 802 667 785 868 712 298 172 226 329 409 401 169 236 468 558 468 432 512 486 502 591 635 645 641 949 1216 1287 1436 1987 1928 1428 1502 1374 1329 1165
18 0 304 533 419 441 564 611 570 711 781 777 516 234 364 276 345 509 414 62 160 337 336 458 441 511 575 406 519 583 426 491 791 1135 1202 1215 1525 1738 1507 1364 1403 1256 1061
57 49 175 337 403 314 386 621 588 706 731 564 371 398 482 668 361 197 170 145 217 181 390 618 579 525 427 439 352 315 318 267 438 674 791 849 1058 1481 1495 1737 1737 1521 1042
125 90 125 260 358 306 366 651 372 636 632 626 304 259 455 755 545 240 331 285 471 258 217 380 676 426 309 420 400 432 365 269 317 178 260 412 694 969 750 1233 2266 2305 1371
116 160 89 212 352 248 459 409 443 436 477 525 378 374 462 833 534 391 173 527 448 363 191 42 449 376 172 379 423 417 381 324 357 342 294 423 350 395 277 256 342 1079 1450
87 140 93 247 246 505 424 423 335 400 495 737 779 818 660 858 503 321 243 482 452 368 418 192 250 149 166 173 214 268 212 386 412 489 434 476 566 621 580 615 531 351 408
34 84 126 277 173 427 280 373 349 410 587 803 904 992 1015 880 511 521 666 798 707 64 386 252 239 68 111 175 158 145 59 100 331 292 346 423 541 754 842 769 821 783 755
5 41 130 147 102 188 246 320 337 488 629 797 855 806 1093 1008 394 179 562 735 378 73 457 435 38 26 55 116 111 45 40 8 114 256 218 241 299 401 551 780 895 927 927
0 32 175 209 151 75 186 153 305 414 560 770 755 837 1213 1189 924 535 658 802 719 231 475 313 97 21 16 27 226 138 172 33 171 36 158 188 218 359 448 495 490 789 885
0 0 64 158 135 84 96 111 186 376 369 407 741 767 648 1152 1304 910 814 886 727 647 547 633 704 42 20 54 357 65 128 155 91 110 220 217 233 261 338 451 509 488 462
90 85 57 0 36 82 110 78 142 206 422 487 414 465 546 898 1376 1188 985 821 924 711 669 726 945 804 866 209 502 797 477 39 111 326 202 419 318 299 324 325 404 474 450